Presure
172 170 169 167 161 167 158 162 153 163 163 160 159 157 157 159 162 165 163 173 169 161 160 159 169 181 193 216 219 179 179 180 188 192 186 190 183 191 196 196 208 206 182 185 184
175 164 165 174 162 163 166 163 165 154 157 156 150 154 154 162 165 164 167 172 170 160 159 173 174 190 218 250 206 169 167 173 184 194 174 169 178 173 182 175 186 181 205 194 192
173 170 165 170 176 168 170 169 168 159 161 160 164 160 161 163 162 167 164 174 162 166 165 175 184 199 234 261 158 167 161 170 160 180 165 166 176 178 171 168 171 193 183 169 187
172 169 165 164 168 168 171 165 164 166 163 169 160 157 160 163 159 171 172 155 161 165 166 169 188 204 305 243 200 174 169 158 161 175 167 167 160 168 178 155 193 207 188 170 223
174 167 168 166 163 162 167 168 166 161 163 164 164 163 165 165 166 168 162 182 162 163 169 173 183 200 148 185 152 157 164 169 157 160 156 152 189 160 157 153 185 209 182 211 169
174 172 171 168 167 165 161 165 168 171 166 164 163 176 168 167 168 177 169 177 172 163 173 171 164 175 147 166 166 157 156 173 160 162 166 157 164 178 170 161 167 199 230 237 239
172 173 173 171 164 164 163 164 170 170 164 170 165 165 169 166 171 176 180 182 169 164 172 161 178 189 166 182 166 147 157 158 164 162 147 153 181 176 175 176 181 181 188 209 221
177 171 169 173 166 167 165 163 171 173 166 165 166 167 169 174 173 172 177 183 164 172 162 173 165 185 165 167 158 157 148 152 147 163 176 166 187 169 162 175 163 171 170 182 192
190 174 171 168 171 165 166 161 176 171 173 173 176 172 172 175 167 169 175 165 175 165 166 178 156 187 188 159 160 166 157 158 151 155 158 151 189 177 169 170 170 170 171 169 178
185 186 177 174 174 179 175 165 176 174 165 164 170 170 172 169 171 168 171 166 163 174 176 176 164 179 196 185 160 161 161 158 150 165 155 159 168 179 169 180 170 183 162 162 159
196 185 188 185 167 166 166 164 167 162 166 162 165 166 168 168 160 163 171 160 174 172 181 184 183 188 205 179 177 172 160 157 156 152 154 171 163 194 172 175 170 170 175 168 166
167 156 163 184 180 159 159 166 171 173 177 178 178 175 173 174 176 175 175 163 172 189 175 189 184 150 212 157 211 165 166 156 155 162 173 163 166 191 184 175 165 180 176 167 159
179 175 174 174 174 174 176 175 175 162 189 196 196 193 190 188 184 185 188 190 190 189 205 211 208 206 175 198 158 155 159 152 158 157 151 173 162 179 176 183 173 177 170 161 174
188 189 187 187 186 186 182 190 165 163 180 235 240 233 238 228 196 194 192 199 208 208 193 206 200 198 206 207 155 180 162 152 153 160 164 160 159 175 174 179 165 168 170 172 163
165 160 195 194 186 166 165 161 162 167 170 278 282 278 238 234 229 220 212 216 223 225 291 241 199 249 227 212 155 164 157 155 154 158 162 166 160 168 168 144 174 169 166 169 165
163 161 161 165 163 163 163 166 166 171 175 239 258 256 244 236 228 221 220 222 298 297 283 173 265 256 148 211 223 161 155 159 158 160 167 158 171 173 147 170 169 168 166 163 163
167 164 164 158 160 171 175 176 172 164 172 163 197 236 232 225 217 213 222 168 224 258 265 265 260 190 238 215 221 150 160 164 168 166 165 162 170 169 147 168 171 166 170 139 153
175 173 172 172 168 169 172 161 161 167 172 174 168 185 198 208 172 175 174 179 183 190 242 255 257 252 211 168 206 168 171 168 176 170 164 166 170 169 164 165 169 167 160 155 169
156 154 156 173 167 173 176 169 162 165 165 169 173 167 173 184 192 187 158 161 173 157 149 176 176 205 170 172 171 172 169 180 178 167 162 171 174 172 158 152 161 159 142 150 161
163 167 159 158 152 161 153 156 157 164 163 168 165 168 164 164 169 179 183 179 189 174 173 183 178 177 173 169 163 173 174 174 172 173 176 182 178 155 146 132 141 153 153 149 159
165 167 164 163 158 153 153 155 150 159 165 168 168 161 160 164 168 172 172 169 173 177 184 190 181 161 163 168 171 171 173 177 178 182 185 174 161 112 133 109 151 160 163 131 172
185 159 179 172 170 166 167 160 154 158 163 165 168 163 162 160 164 165 162 164 166 174 174 179 173 165 166 168 168 170 176 180 180 176 174 167 157 153 160 165 155 168 160 167 180
191 194 182 159 181 176 169 168 169 170 165 156 152 164 172 163 165 161 168 169 168 170 167 168 171 171 168 170 173 173 172 170 170 166 162 164 156 103 146 172 167 175 141 140 182
184 184 165 174 186 166 173 178 172 172 171 171 170 172 161 155 159 162 162 153 166 164 166 168 170 166 165 166 163 163 161 164 172 171 169 180 182 174 123 155 177 175 100 161 191
197 200 174 202 194 189 189 167 177 175 177 174 170 172 176 177 179 177 176 160 161 153 162 164 167 166 167 170 166 167 168 168 173 168 173 168 177 140 161 143 88 190 200 199 192
203 203 175 208 171 198 187 180 188 186 187 180 180 180 178 168 171 176 181 185 185 182 181 178 170 166 168 161 160 171 174 168 164 169 174 175 180 78 197 196 195 195 181 187 189
211 219 218 201 184 182 201 187 203 186 183 189 180 185 186 182 182 186 187 186 189 187 185 186 184 184 185 188 195 199 187 203 167 199 189 171 194 159 95 184 191 197 200 96 202
Wind_Speed
47 44 44 48 45 48 44 43 37 43 41 39 38 37 34 34 34 32 32 33 35 35 35 36 36 36 35 31 31 31 30 29 29 29 32 32 40 35 39 42 40 50 59 62 65
46 44 43 46 47 47 47 43 42 41 41 39 37 38 37 38 38 35 34 34 35 37 35 33 36 37 37 33 33 35 37 34 31 28 38 42 42 50 44 52 48 49 46 58 64
46 45 44 45 49 46 46 46 46 45 43 40 40 41 40 40 39 38 36 36 37 35 33 32 35 37 38 30 38 37 39 36 36 34 43 45 44 45 53 53 54 45 57 58 60
47 47 47 46 44 44 45 46 46 47 45 44 40 40 40 41 40 41 39 38 37 35 32 31 35 36 32 31 36 38 40 37 40 37 44 47 47 51 47 44 39 35 56 59 39
50 48 48 47 45 43 44 46 47 46 44 43 43 42 44 44 43 42 39 41 38 37 31 30 32 31 39 35 40 42 41 40 40 45 46 44 37 44 47 50 36 36 48 34 59
52 52 49 47 45 43 43 44 47 49 47 43 42 44 45 46 45 42 41 42 39 37 32 32 34 31 39 35 41 40 42 41 44 48 48 50 49 41 52 57 48 29 23 24 28
52 51 50 48 44 43 44 45 47 48 44 45 45 45 46 46 45 45 45 44 41 40 35 41 32 34 39 35 41 40 45 46 47 50 43 48 38 40 43 44 39 40 33 30 31
55 52 48 50 47 48 48 46 49 51 45 45 46 46 48 48 48 45 43 45 43 42 42 39 42 38 44 44 47 47 43 43 44 50 42 49 36 46 50 43 46 42 40 33 36
53 55 51 50 52 48 47 44 53 48 48 47 49 49 49 50 49 48 48 48 47 45 46 42 49 42 45 50 50 51 50 51 49 52 52 49 37 42 47 46 44 44 42 40 37
51 57 58 59 57 56 49 41 45 44 46 47 49 50 52 52 52 52 52 50 49 49 49 47 52 48 49 52 52 51 51 52 46 55 48 56 49 44 49 45 47 38 47 45 48
49 51 56 57 38 39 40 42 43 45 47 49 51 54 55 56 54 55 57 52 56 54 56 52 53 55 54 53 56 54 54 54 56 52 54 50 55 41 44 43 48 47 43 46 42
34 40 38 50 49 41 42 44 45 48 53 58 63 64 64 64 63 61 61 54 58 67 57 61 58 40 53 50 55 55 56 53 57 57 48 56 57 46 41 44 50 43 45 48 45
36 36 38 39 42 43 44 44 44 40 57 68 75 77 76 74 73 71 71 71 69 67 73 68 64 58 52 54 55 55 56 54 59 59 55 51 58 56 50 46 49 47 47 48 48
39 43 46 47 48 48 45 48 37 39 49 61 69 71 69 72 76 77 74 78 74 73 64 67 65 61 62 59 54 60 61 57 55 60 56 54 51 59 60 57 53 52 50 48 49
35 37 47 48 44 36 36 37 39 43 48 46 43 51 64 57 60 69 72 72 71 68 64 60 60 64 62 61 57 60 61 58 57 60 57 57 49 54 70 33 61 55 53 51 53
41 41 41 41 41 40 41 41 43 44 47 35 34 36 43 47 50 55 58 60 42 47 50 51 56 58 52 61 61 61 61 62 61 60 54 59 53 51 64 68 69 65 60 56 53
47 48 48 47 46 45 44 41 41 50 45 47 31 35 36 39 41 45 50 52 43 34 40 45 49 58 57 61 63 59 64 66 63 62 59 60 51 61 66 69 72 71 66 48 55
51 53 54 53 51 49 47 47 50 53 48 45 41 28 26 28 45 46 49 49 45 43 38 39 43 49 60 61 62 61 66 70 65 65 62 57 51 61 72 76 74 73 65 57 64
59 58 57 57 54 52 49 48 58 61 58 49 41 44 41 39 36 42 59 59 55 63 61 51 50 55 59 57 61 65 69 70 68 67 62 59 56 60 78 82 76 70 60 53 68
66 67 67 63 59 58 56 61 67 67 62 58 53 49 54 56 53 48 47 52 52 59 59 52 55 57 59 62 68 70 69 73 75 70 64 57 55 70 85 56 55 62 62 59 67
71 74 76 72 69 63 64 70 71 72 71 65 62 60 63 63 60 58 56 64 63 61 59 56 59 64 67 70 71 72 73 78 80 75 65 59 64 38 69 45 73 77 72 59 80
82 74 83 81 76 72 73 79 79 78 76 72 69 69 70 71 71 69 72 74 72 70 71 69 65 65 71 72 74 77 78 81 82 79 75 69 65 88 88 93 82 78 71 80 88
85 85 86 79 83 82 83 85 84 84 85 77 72 76 78 77 77 79 77 78 78 80 80 81 74 71 71 75 79 79 84 86 87 83 79 80 76 35 79 99 83 79 63 62 88
92 86 82 87 92 83 87 91 88 88 89 90 88 85 84 82 83 80 83 87 87 86 87 85 83 81 82 84 83 83 85 88 92 89 93 87 94 96 67 84 86 87 42 80 97
96 92 91 87 96 100 102 84 93 94 97 97 90 92 94 89 90 89 93 93 93 85 89 91 89 89 91 93 91 90 91 93 95 97 96 86 96 83 101 76 41 107 106 101 103
100 98 96 99 96 100 101 96 102 105 105 101 100 103 99 88 95 98 98 98 99 97 98 98 96 97 97 98 93 97 97 101 96 99 99 102 102 25 107 116 119 109 97 103 107
103 106 105 102 106 103 101 105 103 107 101 107 104 107 106 109 108 109 110 109 109 103 102 105 105 106 104 110 115 105 102 104 83 106 105 88 105 77 19 120 113 109 115 43 116
Wind_Direction
216 215 214 219 226 229 232 233 235 240 243 241 245 249 249 252 254 258 256 264 256 247 251 255 270 276 274 272 242 233 232 230 228 228 230 229 233 236 239 240 241 240 239 242 242
215 217 216 220 225 229 234 236 237 237 240 241 240 246 249 255 255 257 258 261 255 251 253 271 270 284 286 269 234 234 237 233 230 227 233 237 235 240 242 245 242 241 243 240 242
216 216 217 219 224 229 233 236 236 237 241 243 246 247 251 253 254 259 252 260 249 255 259 271 285 288 285 250 245 239 242 240 242 231 242 244 240 243 245 248 249 245 247 252 246
217 218 221 220 221 227 231 234 236 240 243 245 244 246 249 252 250 258 258 247 250 253 258 265 285 288 247 236 226 233 239 248 248 234 243 246 256 250 249 263 257 260 252 255 257
223 221 222 224 225 227 231 234 237 241 244 244 246 249 250 252 254 253 250 261 248 249 258 267 273 279 248 238 251 253 248 242 249 251 257 265 259 251 262 265 275 268 259 255 251
222 227 225 227 228 230 234 237 240 242 243 245 246 251 250 251 253 258 252 258 250 246 256 257 255 247 249 240 242 246 254 241 251 250 250 261 262 259 258 261 268 276 287 278 269
223 226 230 229 230 233 236 240 242 242 241 246 246 248 250 251 255 256 259 258 247 244 254 243 264 265 241 242 239 255 252 253 250 251 266 267 262 263 264 263 269 268 277 282 269
220 225 230 230 231 233 235 239 244 245 244 245 247 249 253 255 253 252 255 256 248 249 243 248 244 265 238 239 242 245 255 257 263 256 253 257 255 263 267 267 266 269 269 276 281
219 223 226 229 231 233 235 238 244 245 247 250 252 253 254 254 250 251 254 246 253 245 244 251 245 265 256 241 242 242 249 251 260 262 261 268 256 257 262 265 268 269 270 267 274
219 221 226 229 232 236 239 242 249 249 247 250 253 253 254 251 252 251 253 248 249 252 250 251 243 254 260 245 243 245 246 251 257 254 264 264 262 257 262 264 263 265 266 266 253
218 224 227 233 236 239 243 244 248 249 252 251 253 252 252 251 248 250 254 248 256 254 259 259 255 261 265 246 240 240 246 251 255 263 263 257 266 263 257 261 266 268 269 269 266
231 240 234 235 238 242 245 249 253 257 261 261 259 257 255 255 256 256 256 251 258 265 261 263 264 260 259 252 247 242 243 249 256 257 258 265 269 268 257 258 259 262 265 268 264
238 238 239 241 243 246 249 252 257 260 269 267 263 261 259 259 259 259 262 264 265 264 268 263 261 257 255 249 247 249 248 256 255 259 266 261 271 274 269 262 258 259 260 265 271
243 241 241 242 243 246 249 255 262 267 275 274 266 262 259 256 258 259 263 266 267 267 263 260 257 252 253 249 256 237 245 258 261 260 259 267 270 277 272 267 261 262 264 266 270
250 249 246 246 244 247 252 256 260 265 270 281 268 246 253 255 254 258 262 267 269 266 256 257 257 252 248 243 251 245 255 261 264 262 262 261 263 267 272 269 270 266 266 265 267
252 252 252 250 251 252 253 255 257 262 267 282 266 252 250 253 253 258 264 269 267 258 253 257 249 246 263 239 243 250 261 259 262 263 257 265 262 260 274 270 273 274 275 279 280
249 251 252 253 252 251 251 252 256 257 260 259 281 265 257 257 261 264 267 252 268 268 259 253 249 252 239 238 241 263 257 257 256 257 257 261 260 262 273 266 269 273 274 275 283
248 247 249 250 250 249 249 250 253 257 258 259 257 272 278 268 249 251 253 255 254 255 262 257 249 245 240 252 242 252 251 255 250 256 259 261 258 261 266 267 267 272 278 279 278
252 254 253 248 248 249 248 248 251 252 254 252 254 253 252 259 262 258 251 255 257 255 256 249 246 253 250 251 251 253 257 257 257 255 259 259 258 260 264 270 269 274 272 285 286
251 250 255 253 255 248 253 251 253 253 253 253 250 246 251 250 247 254 256 257 261 255 255 248 246 249 252 252 256 255 258 258 261 258 257 256 257 261 267 254 272 276 281 287 282
253 251 251 252 255 257 256 254 260 256 254 253 252 251 250 251 251 252 251 250 255 257 256 255 251 253 256 256 257 258 259 261 262 265 263 253 254 240 260 239 278 273 276 273 278
250 251 251 252 250 250 251 254 259 259 258 255 252 253 252 254 255 253 252 254 255 256 256 256 250 249 253 256 259 260 262 263 265 265 266 263 259 261 265 267 273 272 278 276 279
247 249 252 255 254 251 251 252 252 254 256 260 261 255 252 255 253 258 257 256 255 255 257 258 256 252 249 253 254 256 259 263 266 268 271 270 270 236 270 270 268 275 274 270 278
251 249 254 252 250 253 252 252 254 254 257 259 257 256 257 261 261 258 259 265 261 263 263 262 261 262 261 259 263 265 267 268 267 269 269 271 267 273 267 271 278 277 260 274 280
252 246 254 248 248 249 251 254 256 256 256 256 256 258 258 259 260 258 256 258 261 267 266 267 266 266 265 264 266 265 266 269 270 273 274 276 276 277 276 279 256 277 278 281 281
254 253 256 247 257 250 253 254 250 252 253 259 261 261 262 261 261 261 261 261 260 260 262 263 263 265 264 270 272 267 267 268 272 274 276 273 275 255 274 275 275 279 283 283 281
254 256 255 248 251 254 250 251 250 254 257 255 259 259 259 261 263 263 262 264 264 265 265 265 265 265 265 267 268 269 270 269 268 272 271 269 275 272 228 275 278 283 283 251 283